This is the latest recevied weather packets stored in our database for station/object OK2ZAW-16. If no packets are shown the sender has not sent any weather packets the latest 10 day(s).
| Time | Temp. | Humidity | Pressure | Rain* | Wind** | Luminosity | Snow |
|---|---|---|---|---|---|---|---|
| 1777471528 | 3.89° C | 41% | 1025.9 hPa | - | - | 137 W/m² | - |
| 1777471219 | 4.44° C | 41% | 1025.8 hPa | - | - | 137 W/m² | - |
| 1777470911 | 4.44° C | 42% | 1025.9 hPa | - | - | 137 W/m² | - |
| 1777470602 | 4.44° C | 42% | 1025.9 hPa | - | - | 137 W/m² | - |
| 1777470311 | 4.44° C | 42% | 1025.8 hPa | - | - | - | - |
| 1777470294 | 4.44° C | 42% | 1025.8 hPa | - | - | 137 W/m² | - |
| 1777469676 | 5° C | 42% | 1025.6 hPa | - | - | 137 W/m² | - |
| 1777469059 | 5° C | 42% | 1025.5 hPa | - | - | 137 W/m² | - |
| 1777468750 | 5.56° C | 42% | 1025.6 hPa | - | - | 137 W/m² | - |
| 1777468448 | 5.56° C | 42% | 1025.6 hPa | - | - | 137 W/m² | - |
| 1777468441 | 5.56° C | 42% | 1025.6 hPa | - | - | 137 W/m² | - |
| 1777468133 | 5.56° C | 42% | 1025.4 hPa | - | - | 137 W/m² | - |
| 1777467830 | 5.56° C | 42% | 1025.4 hPa | - | - | 137 W/m² | - |
| 1777467824 | 5.56° C | 42% | 1025.4 hPa | - | - | 137 W/m² | - |
| 1777466904 | 6.11° C | 42% | 1025.2 hPa | - | - | 137 W/m² | - |
| 1777466898 | 6.11° C | 42% | 1025.2 hPa | - | - | 137 W/m² | - |
| 1777466596 | 6.11° C | 43% | 1025.2 hPa | - | - | 137 W/m² | - |
| 1777466589 | 6.11° C | 43% | 1025.2 hPa | - | - | 137 W/m² | - |
| 1777466281 | 6.11° C | 43% | 1025.2 hPa | - | - | 137 W/m² | - |
| 1777465978 | 5.56° C | 44% | 1025.2 hPa | - | - | 137 W/m² | - |
| 1777465972 | 5.56° C | 44% | 1025.2 hPa | - | - | 137 W/m² | - |
| 1777465663 | 5.56° C | 44% | 1025.3 hPa | - | - | 137 W/m² | - |
| 1777465361 | 5° C | 43% | 1025.3 hPa | - | - | 137 W/m² | - |
| 1777465354 | 5° C | 43% | 1025.3 hPa | - | - | 137 W/m² | - |
| 1777465052 | 5° C | 43% | 1025.3 hPa | - | - | 137 W/m² | - |
* Rain since midnight (hover to see other rain measurements)
** Current wind speed in m/s (hover to see current wind gust speed)